This demonstration page uses our WeatherBlox Daily Observations layout. Learn more.

Left ArrowRight Arrow

36.17497, -115.13722

Hourly Observations for April 11, 2020

Temp ( °F °C ) Dew Point ( °F °C ) Humidity (%) Winds ( mph kmh ) Pressure ( in mb ) Visibility ( mi km ) Precip ( " mm )
12:53 am 00:53 Clear 56 13.3 37 2.8 49 49 NW 6 9 29.96 1015 10 16 N/A
1:53 am 01:53 Clear 56 13.3 38 3.3 51 51 NW 8 13 29.94 1014 10 16 N/A
2:53 am 02:53 Clear 54 12.2 37 2.8 53 53 W 8 13 29.93 1013 10 16 N/A
3:53 am 03:53 Clear 56 13.3 35 1.7 46 46 NW 7 11 29.92 1013 10 16 N/A
4:53 am 04:53 Clear 56 13.3 36 2.2 47 47 NW 9 15 29.91 1013 10 16 N/A
5:53 am 05:53 Partly Cloudy 53 11.7 37 2.8 55 55 WSW 6 9 29.91 1013 10 16 N/A
6:53 am 06:53 Sunny 54 12.2 37 2.8 53 53 S 8 13 29.93 1014 10 16 N/A
7:53 am 07:53 Sunny 57 13.9 37 2.8 47 47 NNW 6 9 29.94 1014 10 16 N/A
8:53 am 08:53 Sunny 59 15 38 3.3 46 46 N 3 6 29.94 1014 10 16 N/A
9:53 am 09:53 Sunny 62 16.7 38 3.3 41 41 N N/A 29.93 1014 10 16 N/A
10:53 am 10:53 Partly Cloudy 65 18.3 37 2.8 36 36 SE 6 9 29.92 1013 10 16 N/A
11:53 am 11:53 Sunny 67 19.4 36 2.2 32 32 N N/A 29.90 1012 10 16 N/A
12:53 pm 12:53 Sunny 71 21.7 36 2.2 28 28 VRB 7 11 29.86 1011 10 16 N/A
1:53 pm 13:53 Sunny 73 22.8 35 1.7 25 25 SSE 6 9 29.84 1010 10 16 N/A
2:53 pm 14:53 Sunny 75 23.9 35 1.7 23 23 VRB 6 9 29.81 1009 10 16 N/A
3:53 pm 15:53 Sunny 76 24.4 34 1.1 22 22 SE 10 17 29.78 1008 10 16 N/A
4:53 pm 16:53 Sunny 77 25 35 1.7 22 22 S 10 17 29.76 1008 10 16 N/A
5:53 pm 17:53 Sunny 76 24.4 36 2.2 23 23 SW 9 15 29.75 1008 10 16 N/A
6:53 pm 18:53 Sunny 74 23.3 37 2.8 26 26 SW 14 22 29.75 1008 10 16 N/A
7:53 pm 19:53 Clear 71 21.7 39 3.9 31 31 WSW 16 26 29.75 1008 10 16 N/A
8:53 pm 20:53 Clear 71 21.7 37 2.8 29 29 W 12 19 29.76 1008 10 16 N/A
9:53 pm 21:53 Clear 71 21.7 35 1.7 27 27 W 10 17 29.77 1008 10 16 N/A
10:53 pm 22:53 Clear 67 19.4 36 2.2 32 32 NNE 5 7 29.78 1008 10 16 N/A
11:53 pm 23:53 Clear 64 17.8 37 2.8 37 37 NW 6 9 29.78 1009 10 16 N/A

Powered by AerisWeather